Location: Ash Swamp
(41.5170°N, 74.6157°W)
Time: 02:24:21
(UTC+00:00)

Cosmos 2218 Rocket - Pass Details

Date: 14 July 2020
Orbit: 955 x 1007 km, 82.9° (Epoch: 14 August)

Event Time Altitude Azimuth Distance (km) Brightness Sun altitude
Exits shadow 04:09:50 39° 225° (SW) 1,441 4.6 -25.6°
Maximum altitude 04:11:57 57° 281° (W) 1,156 4.4 -25.7°
Drops below altitude 10° 04:18:07 10° 359° (N) 2,737 7.3 -26.0°
Sets 04:20:41 0° 4° (N) 3,681 8.2 -26.1°
